STARLINK-33782, 64332

Orbit data source: Space-Track

STARLINK-33782, 64332 is a payload satellite owned by SpaceX/Seattle (US) in LEO that was launched on Tue, 10 Jun 2025 UTC via an FALCON 9 launch vehicle from the Air Force Eastern Test Range (AFETR). Payload-class satellites include a variety of spacecraft equipped with specific instruments for various scientific and technological missions. These include communications satellites like Starlink; space stations such as the ISS; scientific satellites like the Hubble; Earth observation satellites from companies like Planet Labs, Umbra, and HawkEye 360; GPS; miniature CubeSats for education and research; and military/defense satellites.

Loading next visibility...
Identifier
64332, 2025-124R
Orbit
LEO
Last TLE update
9 hours ago
Origin
Manufacturer
SpaceX/Seattle
Mission
Operational spacecraft
Bus & Motor
STARLINK V2MO, Unknown motor
Mass
575 kg wet, ~530 kg dry
Launch date (UTC)
2025-06-10 (3 weeks ago)
Launch vehicle
FALCON 9
Launch site
Air Force Eastern Test Range (AFETR)
Object type
Payload
Rocket body
Debris
Shape & HBR
Unknown
Radar Cross Section
Large (>1 m²)

Expand to show TLE details & history

TLE from 9 hours ago
0 STARLINK-33782
1 64332U 25124R   25182.16668981  .00082053  00000-0  13930-2 0  9991
2 64332  43.0002 107.1581 0001515 275.7058 163.1475 15.50514978  4273
Epoch: 2025-07-01T04:00Z
TLE epoch observation values (Epoch: 2025-07-01T04:00:01.999Z)
Latitude
42.15836°
Longitude
-157.40375°
Altitude
419.122 km
Speed
7.665 km/s
True Right ascension
12h 08m 16s
True Declination
41° 58' 44"
Sunlit
Object was in daylight at epoch
Visualization orbit readout
Latitude
38.51326°
Longitude
-112.67928°
Altitude
418.159 km
Speed
7.665 km/s
Apparent Right ascension
14h 08m 33s
Apparent Declination
0° 48' 42"
Sunlit
Object is in daylight
Visualization observer readout
Local Sidereal Time
01:04:42
Azimuth
336.345° NNW
Elevation
-46.74°
Doppler factor
1
Orbital elements
Apogee altitude
418.215 km
Perigee altitude
416.156 km
Semi-major axis
6,795.323 km
Eccentricity
0.00015
Inclination
43.0002°
RAAN
107.1581°
Arg. of periapsis
275.7058°
True anomaly
Unknown
Mean anomaly
163.1475°
Eccentric anomaly
Unknown
Mean motion
3.87461 °/min
Orbital period
92.91 mins
BSTAR
0.001393
Loading maneuver chart data...
Loading SW <> Apogee altitude chart data...
Loading historical data...
Loading historical data...
Loading historical data...
Loading historical data...
Loading historical data...
Loading historical data...
Loading historical data...

STARLINK-33782 Visibility forecast

Observer location: undefined°, undefined°

Span
Click to sort rows by Start time (UTC) header in descending order
Start Az.
Max El. time (UTC)
Max El. Az.
Max El.
End time (UTC)
End Az.
5 mins2025-07-01 22:25:46.199Z218.92° SW2025-07-01 22:28:46.199Z129.033° SE31.129°2025-07-01 22:30:46.199Z86.264° E
5 mins2025-07-02 00:03:46.199Z274.699° WNW2025-07-02 00:05:46.199Z0.308° NNE40.6°2025-07-02 00:08:46.199Z69.45° E
4 mins2025-07-02 01:41:46.199Z302.015° NW2025-07-02 01:43:46.199Z37.552° NE35.998°2025-07-02 01:45:46.199Z80.143° E
5 mins2025-07-02 03:18:46.199Z278.529° WNW2025-07-02 03:20:46.199Z206.591° SW40.908°2025-07-02 03:23:46.199Z124.177° SE
|